Terminal Aerodrome Forecast
Issued by NWS State College, PA

Home | Current Version | Previous Version | Text Only | Print | Product List | Glossary On
Versions: 1 2 3 4 5 6 7 8 9 10 11 12 13 14 15 16 17 18 19 20 21 22 23 24 25 26 27 28 29 30 31 32 33 34 35 36 37 38 39 40 41 42 43 44 45 46 47 48 49 50
000
FTUS41 KCTP 210532
TAFIPT
TAF
KIPT 210532Z 2106/2206 15014G22KT P6SM BKN070
     FM210700 12008KT P6SM SCT060 WS008/20025KT
      TEMPO 2109/2113 2SM BR SCT003
     FM211400 13007KT P6SM BKN045
     FM211700 20007KT P6SM VCSH BKN040
     FM220100 27009KT P6SM BKN050=

USA.gov is the U.S. government's official web portal to all federal, state and local government web resources and services.